Regional Weather Roundup
Issued by NWS

Home | Current Version | Previous Version | Text Only | Print | Product List | Glossary Off
Versions: 1 2 3 4 5 6 7 8 9 10 11 12 13 14 15 16 17 18 19 20 21 22 23 24 25 26 27 28 29 30 31 32 33 34 35 36 37 38 39 40 41 42 43 44 45 46 47 48 49 50

077
ASUS45 KCYS 271910
RWRWY

WYOMING REGIONAL WEATHER ROUNDUP
NATIONAL WEATHER SERVICE CHEYENNE WY
100 PM MDT THU APR 27 2017

NOTE:  "FAIR" INDICATES FEW OR NO CLOUDS BELOW 12,000 FEET
WITH NO SIGNIFICANT WEATHER AND/OR OBSTRUCTIONS TO VISIBILITY.

WYZ001-272000-
YELLOWSTONE NATIONAL PARK

CITY           SKY/WX    TMP DP  RH WIND       PRES   REMARKS
LK YELLOWSTONE   N/A     30  24  78 NW12G21   29.65R WCI  20
W YELLOWSTONE  NOT AVBL

$$
WYZ002>013-054>058-071-098>099-272000-
NORTHERN WYOMING

CITY           SKY/WX    TMP DP  RH WIND       PRES   REMARKS
JACKSON        PTSUNNY   36  25  64 CALM      29.67S
CODY           PTSUNNY   45  34  65 N20G29    29.59S
GREYBULL       CLOUDY    50  35  56 N29G39    29.53S
WORLAND        CLOUDY    47  37  68 N18       29.53F
SHERIDAN       LGT SNOW  33  32  96 NW6       29.60S VSB 3/4 WCI  28
BUFFALO        SNOW      35  32  88 N18       29.57S VSB 1/2 WCI  24
GILLETTE       LGT RAIN  37  35  92 E6        29.57R WCI  32
HULETT         FAIR      43  32  65 E12       29.59R
NEWCASTLE      MOCLDY    46  32  57 SE14G25   29.56S

$$
WYZ014>020-022>026-101>103-272000-
CENTRAL WYOMING

CITY           SKY/WX    TMP DP  RH WIND       PRES   REMARKS
BIG PINEY      CLOUDY    40  22  48 NW23G29   29.64R WCI  30
PINEDALE       CLOUDY    36  28  75 NW26G37   29.62S WCI  23
DUBOIS         LGT SNOW  32  27  80 NW20      29.58R WCI  20
LANDER         LGT SNOW  32  32 100 W7        29.56S VSB 3/4 WCI  26
RIVERTON       CLOUDY    42  33  70 N17       29.55R
CASPER         CLOUDY    41  34  76 N13       29.53R
DOUGLAS        RAIN      41  36  82 CALM      29.50S

$$
WYZ021-027>030-104>119-272000-
SOUTHERN WYOMING

CITY           SKY/WX    TMP DP  RH WIND       PRES   REMARKS
EVANSTON       CLOUDY    34  24  67 W14G28    29.75F WCI  25
KEMMERER         N/A     34  27  75 W33G39    29.70S HAZE    WCI  19
FORT BRIDGER   CLOUDY    38  24  57 W29G35    29.76S WCI  26
ROCK SPRINGS   CLOUDY    40  23  50 W32G46    29.63S WCI  28
DIXON            N/A     42  22  45 W22       29.66F
RAWLINS        LGT RAIN  41  28  60 W23G33    29.57F
SARATOGA       FAIR      43  27  52 MISG      29.60F
LARAMIE        CLOUDY    38  27  64 W13       29.55F WCI  30
CHEYENNE       CLOUDY    43  36  76 S8        29.55R
TORRINGTON     PTSUNNY   49  39  68 SE12      29.50F
PINE BLUFFS    CLOUDY    45  37  76 NE8       29.54F

$$




USA.gov is the U.S. government's official web portal to all federal, state and local government web resources and services.